Hourly Weather Banfora

Today, 3 July, Friday

Time Temperature Precipitation Wind Pressure Humidity
00:00 +28°C° 0 mm 1 mps 733 mmHg 66%
01:00 +28°C° 0 mm 1 mps 733 mmHg 68%
02:00 +27°C° 0 mm 1 mps 733 mmHg 71%
03:00 +27°C° 0 mm 2 mps 732 mmHg 73%
04:00 +27°C° 0 mm 1 mps 733 mmHg 74%
05:00 +27°C° 0 mm 1 mps 733 mmHg 74%
06:00 +27°C° 0 mm 1 mps 733 mmHg 74%
07:00 +28°C° 0 mm 2 mps 733 mmHg 72%
08:00 +29°C° 0 mm 3 mps 733 mmHg 69%
09:00 +30°C° 0 mm 3 mps 733 mmHg 67%
10:00 +31°C° 0 mm 3 mps 733 mmHg 63%
11:00 +33°C° 0 mm 3 mps 733 mmHg 59%
12:00 +34°C° 0 mm 2 mps 733 mmHg 55%
13:00 +35°C° 0 mm 2 mps 732 mmHg 50%
14:00 +37°C° 0 mm 2 mps 732 mmHg 46%
15:00 +37°C° 0 mm 1 mps 731 mmHg 41%
16:00 +36°C° 0 mm 1 mps 731 mmHg 44%
17:00 +35°C° 0 mm 1 mps 730 mmHg 48%
18:00 +34°C° 0 mm 1 mps 730 mmHg 51%
19:00 +32°C° 0.4 mm 1 mps 731 mmHg 57%
20:00 +31°C° 0.4 mm 1 mps 731 mmHg 62%
21:00 +29°C° 0.4 mm 1 mps 732 mmHg 68%
22:00 +29°C° 0.7 mm 1 mps 732 mmHg 72%
23:00 +28°C° 0.7 mm 1 mps 732 mmHg 77%

Tomorrow, 4 July, Saturday

Time Temperature Precipitation Wind Pressure Humidity
00:00 +27°C° 0.7 mm 2 mps 732 mmHg 81%
01:00 +27°C° 0.4 mm 2 mps 732 mmHg 84%
02:00 +26°C° 0.4 mm 2 mps 732 mmHg 87%
03:00 +26°C° 0.4 mm 3 mps 731 mmHg 89%
04:00 +26°C° 0.1 mm 3 mps 732 mmHg 91%
05:00 +26°C° 0.1 mm 3 mps 732 mmHg 92%
06:00 +25°C° 0.1 mm 4 mps 732 mmHg 93%
07:00 +26°C° 0 mm 4 mps 732 mmHg 90%
08:00 +26°C° 0 mm 3 mps 733 mmHg 88%
09:00 +27°C° 0 mm 3 mps 733 mmHg 86%
10:00 +28°C° 0 mm 3 mps 733 mmHg 78%
11:00 +30°C° 0 mm 3 mps 733 mmHg 71%
12:00 +33°C° 0 mm 3 mps 733 mmHg 63%
13:00 +34°C° 0 mm 3 mps 732 mmHg 59%
14:00 +35°C° 0 mm 3 mps 732 mmHg 55%
15:00 +36°C° 0 mm 2 mps 731 mmHg 52%
16:00 +35°C° 0 mm 2 mps 731 mmHg 55%
17:00 +34°C° 0 mm 2 mps 731 mmHg 58%
18:00 +32°C° 0 mm 2 mps 730 mmHg 62%
19:00 +31°C° 0.6 mm 2 mps 731 mmHg 68%
20:00 +29°C° 0.6 mm 2 mps 731 mmHg 73%
21:00 +28°C° 0.6 mm 2 mps 732 mmHg 79%
22:00 +28°C° 0.1 mm 2 mps 732 mmHg 82%
23:00 +27°C° 0.1 mm 3 mps 732 mmHg 84%

Day after tomorrow, 5 July, Sunday

Time Temperature Precipitation Wind Pressure Humidity
00:00 +27°C° 0.1 mm 3 mps 732 mmHg 86%
01:00 +26°C° 0.1 mm 3 mps 732 mmHg 87%
02:00 +26°C° 0.1 mm 2 mps 732 mmHg 89%
03:00 +26°C° 0.1 mm 2 mps 732 mmHg 90%
04:00 +25°C° 0.1 mm 2 mps 732 mmHg 91%
05:00 +25°C° 0.1 mm 2 mps 732 mmHg 92%
06:00 +25°C° 0.1 mm 3 mps 732 mmHg 93%
07:00 +26°C° 0 mm 3 mps 733 mmHg 89%
08:00 +26°C° 0 mm 3 mps 733 mmHg 86%
09:00 +27°C° 0 mm 4 mps 734 mmHg 83%
10:00 +28°C° 0 mm 3 mps 733 mmHg 77%
11:00 +29°C° 0 mm 3 mps 733 mmHg 72%
12:00 +30°C° 0 mm 2 mps 733 mmHg 66%
13:00 +31°C° 0.1 mm 2 mps 733 mmHg 64%
14:00 +32°C° 0.1 mm 1 mps 732 mmHg 62%
15:00 +32°C° 0.1 mm 1 mps 732 mmHg 59%
16:00 +32°C° 0.7 mm 1 mps 732 mmHg 61%
17:00 +32°C° 0.7 mm 1 mps 732 mmHg 64%
18:00 +31°C° 0.7 mm 1 mps 732 mmHg 66%
19:00 +30°C° 0.3 mm 1 mps 732 mmHg 71%
20:00 +29°C° 0.3 mm 1 mps 732 mmHg 76%
21:00 +27°C° 0.3 mm 2 mps 733 mmHg 80%
22:00 +27°C° 0.2 mm 2 mps 733 mmHg 82%
23:00 +27°C° 0.2 mm 1 mps 733 mmHg 84%

6 July, Monday

Time Temperature Precipitation Wind Pressure Humidity
00:00 +26°C° 0.2 mm 1 mps 733 mmHg 85%
01:00 +26°C° 0.2 mm 1 mps 733 mmHg 87%
02:00 +26°C° 0.2 mm 2 mps 733 mmHg 88%
03:00 +26°C° 0.2 mm 2 mps 732 mmHg 89%
04:00 +26°C° 0.3 mm 2 mps 733 mmHg 89%
05:00 +26°C° 0.3 mm 1 mps 733 mmHg 90%
06:00 +25°C° 0.3 mm 1 mps 733 mmHg 90%
07:00 +26°C° 0 mm 2 mps 733 mmHg 86%
08:00 +27°C° 0 mm 2 mps 734 mmHg 83%
09:00 +28°C° 0 mm 2 mps 734 mmHg 79%
10:00 +30°C° 0 mm 2 mps 734 mmHg 70%
11:00 +32°C° 0 mm 2 mps 733 mmHg 62%
12:00 +34°C° 0 mm 3 mps 733 mmHg 54%
13:00 +35°C° 0 mm 2 mps 732 mmHg 50%
14:00 +36°C° 0 mm 2 mps 732 mmHg 47%
15:00 +36°C° 0 mm 1 mps 731 mmHg 43%
16:00 +35°C° 0 mm 1 mps 731 mmHg 47%
17:00 +34°C° 0 mm 1 mps 731 mmHg 50%
18:00 +33°C° 0 mm 1 mps 731 mmHg 54%
19:00 +32°C° 0.1 mm 1 mps 731 mmHg 56%
20:00 +31°C° 0.1 mm 1 mps 732 mmHg 59%
21:00 +30°C° 0.1 mm 1 mps 732 mmHg 62%
22:00 +29°C° 0.3 mm 1 mps 732 mmHg 67%
23:00 +28°C° 0.3 mm 1 mps 732 mmHg 72%

7 July, Tuesday

Time Temperature Precipitation Wind Pressure Humidity
00:00 +27°C° 0.3 mm 2 mps 733 mmHg 76%
01:00 +27°C° 0.2 mm 1 mps 732 mmHg 79%
02:00 +27°C° 0.2 mm 1 mps 732 mmHg 82%
03:00 +26°C° 0.2 mm 1 mps 732 mmHg 85%
04:00 +26°C° 0 mm 1 mps 732 mmHg 86%
05:00 +26°C° 0 mm 1 mps 732 mmHg 88%
06:00 +26°C° 0 mm 1 mps 732 mmHg 89%
07:00 +27°C° 0 mm 2 mps 733 mmHg 84%
08:00 +28°C° 0 mm 3 mps 733 mmHg 80%
09:00 +29°C° 0 mm 4 mps 733 mmHg 75%
10:00 +32°C° 0 mm 4 mps 733 mmHg 68%
11:00 +34°C° 0 mm 3 mps 732 mmHg 61%
12:00 +35°C° 0 mm 3 mps 732 mmHg 53%
13:00 +36°C° 0 mm 2 mps 732 mmHg 50%
14:00 +37°C° 0 mm 2 mps 731 mmHg 47%
15:00 +37°C° 0 mm 1 mps 730 mmHg 44%
16:00 +36°C° 0 mm 1 mps 730 mmHg 47%
17:00 +33°C° 0 mm 0 mps 730 mmHg 50%
18:00 +32°C° 0 mm 0 mps 730 mmHg 53%
19:00 +31°C° 0.3 mm 0 mps 731 mmHg 57%
20:00 +31°C° 0.3 mm 1 mps 731 mmHg 62%
21:00 +30°C° 0.3 mm 1 mps 731 mmHg 66%
22:00 +29°C° 0.9 mm 1 mps 732 mmHg 72%
23:00 +28°C° 0.9 mm 1 mps 732 mmHg 77%

8 July, Wednesday

Time Temperature Precipitation Wind Pressure Humidity
00:00 +27°C° 0.9 mm 1 mps 732 mmHg 83%
01:00 +26°C° 0.2 mm 2 mps 732 mmHg 85%
02:00 +26°C° 0.2 mm 2 mps 731 mmHg 87%
03:00 +26°C° 0.2 mm 3 mps 731 mmHg 89%
04:00 +26°C° 0 mm 3 mps 731 mmHg 91%
05:00 +25°C° 0 mm 2 mps 731 mmHg 92%
06:00 +25°C° 0 mm 2 mps 731 mmHg 94%
07:00 +26°C° 0 mm 2 mps 732 mmHg 89%
08:00 +27°C° 0 mm 3 mps 732 mmHg 84%
09:00 +28°C° 0 mm 3 mps 733 mmHg 79%
10:00 +30°C° 0 mm 3 mps 733 mmHg 72%
11:00 +33°C° 0 mm 3 mps 732 mmHg 65%
12:00 +35°C° 0 mm 3 mps 732 mmHg 57%
13:00 +35°C° 0 mm 3 mps 732 mmHg 55%
14:00 +36°C° 0 mm 3 mps 731 mmHg 52%
15:00 +37°C° 0 mm 3 mps 731 mmHg 49%
16:00 +36°C° 0 mm 3 mps 730 mmHg 52%
17:00 +35°C° 0 mm 2 mps 730 mmHg 56%
18:00 +34°C° 0 mm 2 mps 730 mmHg 59%
19:00 +31°C° 1 mm 2 mps 730 mmHg 67%
20:00 +29°C° 1 mm 2 mps 731 mmHg 76%
21:00 +28°C° 1 mm 2 mps 731 mmHg 84%
22:00 +27°C° 0.4 mm 2 mps 731 mmHg 87%
23:00 +27°C° 0.4 mm 2 mps 732 mmHg 89%
Show more